Wind From: 11-12-2017 04:25 Until: 16:00 warning for: Wind Level: Orange info button

Power and phone distribution networks may be disrupted for relatively long periods., Roofs and chimneys can be damaged. , Tree branches may break. , Vehicles can be deported. , Traffic may be disrupted, particularly on secondary roads in forest areas. Limit your trips. , Limit your speed in highway driving, especially if you drive a vehicle or hitch sensitive to wind. , Do not go for walks in forests or along the coast., In town, be vigilant against possible falling objects., Do not work on roofs and do not touch any electrical line fallen on the ground., Store or secure sensitive objects to wind or likely to be damaged., Always install power generators outside buildings. 


Meteo18 Weather Cam more information Meteo18 Weather Cam


Thunder radar more information blitzortung!


Rain radar more information rain snow radar


Visit our other weather sites:

Template documentation
and downloads

And another site



Weather Underground History page Text

Daily Summary for February 21, 2017 Units:  Metric    English   Both
« Previous Day
Next Day »
Daily Weekly Monthly Yearly Custom
  High: Low: Average:
Temperature: 11.2 °C 8.7 °C 9.9 °C
Dew Point: 9.9 °C 8.3 °C 9.1 °C
Humidity: 97 % 91 % 95 %
Wind Speed: 19.3 km/h 0.0 km/h 8.1 km/h
Wind Gust: 27.4 km/h - -
Wind:- - WSW
Pressure: 1025.3 hPa 1023.2 hPa -
Precipitation: 0.0 mm    
Historical Graphs
 
 
Tabular Data for February 21, 2017
Time Temperature Dew Point Pressure Wind Wind Speed Wind Gust Humidity Rainfall Rate (Hourly)
00:02 8.7 °C 8.3 °C 1024.9 hPa SW 4.8 km/h 11.3 km/h 97 % 0.0 mm
00:07 8.8 °C 8.3 °C 1024.9 hPa SSW 6.4 km/h 19.3 km/h 97 % 0.0 mm
00:12 8.8 °C 8.3 °C 1025.3 hPa SW 8.0 km/h 19.3 km/h 97 % 0.0 mm
00:17 8.8 °C 8.3 °C 1024.9 hPa WSW 6.4 km/h 19.3 km/h 97 % 0.0 mm
00:22 8.8 °C 8.3 °C 1025.3 hPa SW 1.6 km/h 19.3 km/h 97 % 0.0 mm
00:27 8.8 °C 8.3 °C 1025.3 hPa SSW 8.0 km/h 19.3 km/h 97 % 0.0 mm
00:32 8.9 °C 8.4 °C 1024.9 hPa SSW 4.8 km/h 16.1 km/h 97 % 0.0 mm
00:37 8.9 °C 8.4 °C 1024.9 hPa SW 8.0 km/h 16.1 km/h 97 % 0.0 mm
00:42 8.9 °C 8.4 °C 1024.9 hPa SW 4.8 km/h 17.7 km/h 97 % 0.0 mm
00:47 8.9 °C 8.4 °C 1025.3 hPa SW 9.7 km/h 17.7 km/h 97 % 0.0 mm
00:52 8.9 °C 8.4 °C 1025.3 hPa SW 3.2 km/h 17.7 km/h 97 % 0.0 mm
00:57 9.0 °C 8.5 °C 1025.3 hPa WSW 8.0 km/h 16.1 km/h 97 % 0.0 mm
01:02 9.0 °C 8.5 °C 1024.9 hPa SSW 4.8 km/h 16.1 km/h 97 % 0.0 mm
01:07 9.0 °C 8.5 °C 1024.9 hPa SW 8.0 km/h 17.7 km/h 97 % 0.0 mm
01:12 9.1 °C 8.6 °C 1024.9 hPa SSW 6.4 km/h 17.7 km/h 97 % 0.0 mm
01:17 9.1 °C 8.6 °C 1024.9 hPa SSW 6.4 km/h 20.9 km/h 97 % 0.0 mm
01:22 9.1 °C 8.6 °C 1024.9 hPa SSW 6.4 km/h 20.9 km/h 97 % 0.0 mm
01:32 9.1 °C 8.6 °C 1024.9 hPa SW 14.5 km/h 20.9 km/h 97 % 0.0 mm
01:37 9.1 °C 8.6 °C 1024.9 hPa SW 4.8 km/h 19.3 km/h 97 % 0.0 mm
01:42 9.2 °C 8.7 °C 1024.9 hPa SW 4.8 km/h 19.3 km/h 97 % 0.0 mm
01:47 9.2 °C 8.7 °C 1024.9 hPa SW 16.1 km/h 19.3 km/h 97 % 0.0 mm
01:52 9.2 °C 8.7 °C 1024.9 hPa WSW 4.8 km/h 19.3 km/h 97 % 0.0 mm
01:57 9.2 °C 8.7 °C 1024.6 hPa SW 6.4 km/h 19.3 km/h 97 % 0.0 mm
02:02 9.2 °C 8.7 °C 1024.6 hPa SSW 6.4 km/h 19.3 km/h 97 % 0.0 mm
02:07 9.2 °C 8.7 °C 1024.6 hPa SW 12.9 km/h 22.5 km/h 97 % 0.0 mm
02:12 9.2 °C 8.7 °C 1024.6 hPa SW 3.2 km/h 22.5 km/h 97 % 0.0 mm
02:17 9.2 °C 8.7 °C 1024.6 hPa WSW 6.4 km/h 20.9 km/h 97 % 0.0 mm
02:22 9.2 °C 8.7 °C 1024.6 hPa SW 17.7 km/h 20.9 km/h 97 % 0.0 mm
02:32 9.2 °C 8.7 °C 1024.6 hPa SW 6.4 km/h 22.5 km/h 97 % 0.0 mm
02:37 9.2 °C 8.7 °C 1024.6 hPa SW 4.8 km/h 22.5 km/h 97 % 0.0 mm
02:42 9.2 °C 8.7 °C 1024.6 hPa West 11.3 km/h 20.9 km/h 97 % 0.0 mm
02:47 9.2 °C 8.7 °C 1024.6 hPa SW 11.3 km/h 24.1 km/h 97 % 0.0 mm
02:52 9.2 °C 8.7 °C 1024.6 hPa SW 6.4 km/h 24.1 km/h 97 % 0.0 mm
02:57 9.2 °C 8.7 °C 1024.3 hPa WSW 11.3 km/h 24.1 km/h 97 % 0.0 mm
03:02 9.2 °C 8.7 °C 1024.3 hPa WSW 11.3 km/h 24.1 km/h 97 % 0.0 mm
03:07 9.2 °C 8.7 °C 1024.3 hPa WSW 6.4 km/h 24.1 km/h 97 % 0.0 mm
03:12 9.2 °C 8.7 °C 1024.3 hPa SSW 8.0 km/h 24.1 km/h 97 % 0.0 mm
03:17 9.2 °C 8.7 °C 1024.3 hPa WSW 6.4 km/h 25.7 km/h 97 % 0.0 mm
03:22 9.2 °C 8.7 °C 1024.3 hPa West 6.4 km/h 25.7 km/h 97 % 0.0 mm
03:32 9.2 °C 8.7 °C 1024.3 hPa West 9.7 km/h 20.9 km/h 97 % 0.0 mm
03:37 9.2 °C 8.7 °C 1024.3 hPa WSW 8.0 km/h 22.5 km/h 97 % 0.0 mm
03:42 9.2 °C 8.7 °C 1024.3 hPa SW 6.4 km/h 22.5 km/h 97 % 0.0 mm
03:47 9.2 °C 8.7 °C 1023.9 hPa WSW 3.2 km/h 24.1 km/h 97 % 0.0 mm
03:52 9.1 °C 8.6 °C 1023.9 hPa West 9.7 km/h 24.1 km/h 97 % 0.0 mm
03:57 9.1 °C 8.6 °C 1023.9 hPa SSW 4.8 km/h 22.5 km/h 97 % 0.0 mm
04:02 9.1 °C 8.6 °C 1023.9 hPa West 14.5 km/h 22.5 km/h 97 % 0.0 mm
04:07 9.1 °C 8.6 °C 1023.9 hPa WSW 14.5 km/h 24.1 km/h 97 % 0.0 mm
04:12 9.1 °C 8.6 °C 1023.9 hPa WSW 14.5 km/h 24.1 km/h 97 % 0.0 mm
04:17 9.1 °C 8.6 °C 1023.9 hPa West 14.5 km/h 24.1 km/h 97 % 0.0 mm
04:22 9.1 °C 8.6 °C 1023.9 hPa WSW 9.7 km/h 24.1 km/h 97 % 0.0 mm
04:32 9.1 °C 8.6 °C 1023.9 hPa WSW 11.3 km/h 22.5 km/h 97 % 0.0 mm
04:37 9.1 °C 8.6 °C 1023.9 hPa West 8.0 km/h 19.3 km/h 97 % 0.0 mm
04:42 9.1 °C 8.6 °C 1023.9 hPa WSW 11.3 km/h 19.3 km/h 97 % 0.0 mm
04:47 9.1 °C 8.6 °C 1023.6 hPa West 12.9 km/h 17.7 km/h 97 % 0.0 mm
04:52 9.1 °C 8.6 °C 1023.6 hPa West 6.4 km/h 17.7 km/h 97 % 0.0 mm
04:57 9.1 °C 8.6 °C 1023.9 hPa West 9.7 km/h 17.7 km/h 97 % 0.0 mm
05:02 9.1 °C 8.6 °C 1023.9 hPa WSW 16.1 km/h 17.7 km/h 97 % 0.0 mm
05:12 9.1 °C 8.6 °C 1023.6 hPa SW 9.7 km/h 17.7 km/h 97 % 0.0 mm
05:17 9.1 °C 8.6 °C 1023.6 hPa SW 9.7 km/h 17.7 km/h 97 % 0.0 mm
05:22 9.2 °C 8.7 °C 1023.6 hPa WSW 9.7 km/h 17.7 km/h 97 % 0.0 mm
05:32 9.2 °C 8.7 °C 1023.6 hPa WSW 19.3 km/h 19.3 km/h 97 % 0.0 mm
05:42 9.2 °C 8.7 °C 1023.9 hPa WSW 11.3 km/h 19.3 km/h 97 % 0.0 mm
05:52 9.2 °C 8.7 °C 1023.9 hPa WSW 14.5 km/h 19.3 km/h 97 % 0.0 mm
06:02 9.2 °C 8.7 °C 1023.9 hPa WSW 8.0 km/h 17.7 km/h 97 % 0.0 mm
06:12 9.2 °C 8.7 °C 1023.9 hPa WSW 11.3 km/h 20.9 km/h 97 % 0.0 mm
06:17 9.2 °C 8.7 °C 1023.9 hPa WNW 3.2 km/h 17.7 km/h 97 % 0.0 mm
06:22 9.1 °C 8.6 °C 1023.9 hPa West 11.3 km/h 17.7 km/h 97 % 0.0 mm
06:32 9.1 °C 8.6 °C 1023.6 hPa WSW 12.9 km/h 17.7 km/h 97 % 0.0 mm
06:42 9.1 °C 8.6 °C 1023.6 hPa SW 11.3 km/h 20.9 km/h 97 % 0.0 mm
06:47 9.1 °C 8.6 °C 1023.9 hPa WNW 8.0 km/h 20.9 km/h 97 % 0.0 mm
06:52 9.1 °C 8.6 °C 1023.9 hPa WSW 8.0 km/h 20.9 km/h 97 % 0.0 mm
07:02 9.1 °C 8.6 °C 1023.9 hPa WNW 9.7 km/h 19.3 km/h 97 % 0.0 mm
07:12 9.2 °C 8.7 °C 1023.9 hPa West 8.0 km/h 16.1 km/h 97 % 0.0 mm
07:17 9.2 °C 8.7 °C 1023.9 hPa WSW 11.3 km/h 17.7 km/h 97 % 0.0 mm
07:22 9.2 °C 8.7 °C 1023.9 hPa WSW 14.5 km/h 17.7 km/h 97 % 0.0 mm
07:32 9.2 °C 8.7 °C 1023.9 hPa West 9.7 km/h 17.7 km/h 97 % 0.0 mm
07:42 9.3 °C 8.8 °C 1024.3 hPa West 9.7 km/h 22.5 km/h 97 % 0.0 mm
07:52 9.3 °C 8.8 °C 1024.3 hPa WSW 14.5 km/h 22.5 km/h 97 % 0.0 mm
07:57 9.3 °C 8.8 °C 1024.3 hPa West 8.0 km/h 19.3 km/h 97 % 0.0 mm
08:02 9.3 °C 8.8 °C 1024.3 hPa West 8.0 km/h 19.3 km/h 97 % 0.0 mm
08:12 9.3 °C 8.8 °C 1024.3 hPa West 6.4 km/h 17.7 km/h 97 % 0.0 mm
08:17 9.3 °C 8.8 °C 1024.6 hPa WSW 9.7 km/h 17.7 km/h 97 % 0.0 mm
08:22 9.3 °C 8.8 °C 1024.6 hPa West 6.4 km/h 17.7 km/h 97 % 0.0 mm
08:32 9.4 °C 8.9 °C 1024.6 hPa West 8.0 km/h 16.1 km/h 97 % 0.0 mm
08:42 9.4 °C 8.9 °C 1024.6 hPa WSW 4.8 km/h 16.1 km/h 97 % 0.0 mm
08:47 9.5 °C 9.0 °C 1024.6 hPa WNW 4.8 km/h 16.1 km/h 97 % 0.0 mm
08:52 9.6 °C 9.1 °C 1024.6 hPa West 4.8 km/h 16.1 km/h 97 % 0.0 mm
08:57 9.6 °C 9.1 °C 1024.6 hPa West 8.0 km/h 14.5 km/h 97 % 0.0 mm
09:02 9.7 °C 9.2 °C 1024.6 hPa WSW 17.7 km/h 17.7 km/h 97 % 0.0 mm
09:12 9.8 °C 9.2 °C 1024.6 hPa West 11.3 km/h 17.7 km/h 96 % 0.0 mm
09:17 9.9 °C 9.3 °C 1024.6 hPa West 8.0 km/h 17.7 km/h 96 % 0.0 mm
09:22 9.9 °C 9.3 °C 1024.6 hPa WSW 8.0 km/h 17.7 km/h 96 % 0.0 mm
09:32 10.0 °C 9.2 °C 1024.6 hPa West 12.9 km/h 20.9 km/h 95 % 0.0 mm
09:42 10.0 °C 9.2 °C 1024.6 hPa West 11.3 km/h 20.9 km/h 95 % 0.0 mm
09:52 9.9 °C 9.3 °C 1024.6 hPa West 6.4 km/h 22.5 km/h 96 % 0.0 mm
09:57 9.9 °C 9.3 °C 1024.3 hPa WSW 12.9 km/h 22.5 km/h 96 % 0.0 mm
10:07 10.0 °C 9.4 °C 1024.3 hPa West 11.3 km/h 20.9 km/h 96 % 0.0 mm
10:12 10.1 °C 9.5 °C 1024.6 hPa WSW 9.7 km/h 20.9 km/h 96 % 0.0 mm
10:17 10.1 °C 9.5 °C 1024.6 hPa NW 4.8 km/h 22.5 km/h 96 % 0.0 mm
10:22 10.1 °C 9.5 °C 1024.6 hPa West 9.7 km/h 22.5 km/h 96 % 0.0 mm
10:32 10.2 °C 9.6 °C 1024.9 hPa West 6.4 km/h 22.5 km/h 96 % 0.0 mm
10:37 10.2 °C 9.6 °C 1024.6 hPa WNW 6.4 km/h 19.3 km/h 96 % 0.0 mm
10:42 10.3 °C 9.7 °C 1024.6 hPa WNW 11.3 km/h 19.3 km/h 96 % 0.0 mm
10:47 10.3 °C 9.5 °C 1024.6 hPa WNW 8.0 km/h 17.7 km/h 95 % 0.0 mm
10:52 10.4 °C 9.6 °C 1024.6 hPa WSW 4.8 km/h 17.7 km/h 95 % 0.0 mm
11:02 10.5 °C 9.7 °C 1024.6 hPa West 14.5 km/h 19.3 km/h 95 % 0.0 mm
11:12 10.6 °C 9.7 °C 1024.9 hPa West 8.0 km/h 22.5 km/h 94 % 0.0 mm
11:17 10.6 °C 9.7 °C 1024.9 hPa WSW 8.0 km/h 20.9 km/h 94 % 0.0 mm
11:22 10.7 °C 9.8 °C 1024.9 hPa West 12.9 km/h 20.9 km/h 94 % 0.0 mm
11:27 10.7 °C 9.8 °C 1024.9 hPa WNW 11.3 km/h 20.9 km/h 94 % 0.0 mm
11:32 10.7 °C 9.8 °C 1024.9 hPa West 9.7 km/h 20.9 km/h 94 % 0.0 mm
11:37 10.6 °C 9.5 °C 1024.9 hPa WNW 9.7 km/h 20.9 km/h 93 % 0.0 mm
11:42 10.7 °C 9.6 °C 1024.9 hPa WNW 16.1 km/h 20.9 km/h 93 % 0.0 mm
11:47 10.7 °C 9.6 °C 1024.9 hPa WNW 9.7 km/h 22.5 km/h 93 % 0.0 mm
11:52 10.6 °C 9.7 °C 1024.9 hPa WSW 3.2 km/h 22.5 km/h 94 % 0.0 mm
11:57 10.6 °C 9.7 °C 1024.9 hPa West 4.8 km/h 17.7 km/h 94 % 0.0 mm
12:02 10.6 °C 9.7 °C 1024.9 hPa WNW 8.0 km/h 17.7 km/h 94 % 0.0 mm
12:12 10.7 °C 9.8 °C 1024.9 hPa West 3.2 km/h 16.1 km/h 94 % 0.0 mm
12:17 10.8 °C 9.7 °C 1024.9 hPa WNW 4.8 km/h 12.9 km/h 93 % 0.0 mm
12:22 10.8 °C 9.6 °C 1024.9 hPa SW 3.2 km/h 11.3 km/h 92 % 0.0 mm
12:27 10.9 °C 9.7 °C 1024.9 hPa West 8.0 km/h 11.3 km/h 92 % 0.0 mm
12:32 10.9 °C 9.7 °C 1024.9 hPa WNW 8.0 km/h 19.3 km/h 92 % 0.0 mm
12:37 10.9 °C 9.7 °C 1024.9 hPa WSW 8.0 km/h 19.3 km/h 92 % 0.0 mm
12:42 10.9 °C 9.7 °C 1024.9 hPa West 3.2 km/h 14.5 km/h 92 % 0.0 mm
12:52 10.8 °C 9.7 °C 1024.9 hPa WNW 6.4 km/h 12.9 km/h 93 % 0.0 mm
12:57 10.8 °C 9.7 °C 1024.6 hPa WNW 3.2 km/h 24.1 km/h 93 % 0.0 mm
13:02 10.8 °C 9.7 °C 1024.6 hPa NW 8.0 km/h 24.1 km/h 93 % 0.0 mm
13:07 10.9 °C 9.8 °C 1024.6 hPa West 4.8 km/h 19.3 km/h 93 % 0.0 mm
13:12 10.9 °C 9.8 °C 1024.6 hPa West 6.4 km/h 19.3 km/h 93 % 0.0 mm
13:22 10.9 °C 9.8 °C 1024.6 hPa WNW 11.3 km/h 19.3 km/h 93 % 0.0 mm
13:27 10.9 °C 9.7 °C 1024.3 hPa WNW 4.8 km/h 19.3 km/h 92 % 0.0 mm
13:32 10.9 °C 9.7 °C 1024.3 hPa WSW 12.9 km/h 19.3 km/h 92 % 0.0 mm
13:37 11.1 °C 9.8 °C 1024.3 hPa WNW 9.7 km/h 19.3 km/h 92 % 0.0 mm
13:42 11.1 °C 9.8 °C 1024.3 hPa West 8.0 km/h 19.3 km/h 92 % 0.0 mm
13:47 11.1 °C 9.8 °C 1024.3 hPa WSW 11.3 km/h 20.9 km/h 92 % 0.0 mm
13:52 11.1 °C 9.8 °C 1024.3 hPa WSW 17.7 km/h 20.9 km/h 92 % 0.0 mm
13:57 11.1 °C 9.8 °C 1024.3 hPa West 12.9 km/h 24.1 km/h 92 % 0.0 mm
14:02 11.1 °C 9.8 °C 1024.3 hPa West 16.1 km/h 24.1 km/h 92 % 0.0 mm
14:07 11.1 °C 9.8 °C 1023.9 hPa NW 12.9 km/h 27.4 km/h 92 % 0.0 mm
14:12 11.1 °C 9.8 °C 1023.9 hPa WNW 11.3 km/h 27.4 km/h 92 % 0.0 mm
14:17 11.2 °C 9.9 °C 1023.9 hPa SW 11.3 km/h 27.4 km/h 92 % 0.0 mm
14:22 11.2 °C 9.9 °C 1023.9 hPa WSW 14.5 km/h 27.4 km/h 92 % 0.0 mm
14:27 11.2 °C 9.9 °C 1023.9 hPa WSW 14.5 km/h 24.1 km/h 92 % 0.0 mm
14:32 11.2 °C 9.9 °C 1023.9 hPa West 8.0 km/h 24.1 km/h 92 % 0.0 mm
14:37 11.2 °C 9.9 °C 1023.9 hPa West 9.7 km/h 20.9 km/h 92 % 0.0 mm
14:42 11.2 °C 9.9 °C 1023.9 hPa WSW 12.9 km/h 20.9 km/h 92 % 0.0 mm
14:47 11.2 °C 9.8 °C 1023.9 hPa West 8.0 km/h 22.5 km/h 91 % 0.0 mm
14:52 11.2 °C 9.9 °C 1023.9 hPa WSW 16.1 km/h 22.5 km/h 92 % 0.0 mm
14:57 11.2 °C 9.8 °C 1023.9 hPa WSW 12.9 km/h 19.3 km/h 91 % 0.0 mm
15:02 11.2 °C 9.9 °C 1023.9 hPa West 9.7 km/h 19.3 km/h 92 % 0.0 mm
15:07 11.1 °C 9.8 °C 1023.9 hPa WSW 16.1 km/h 20.9 km/h 92 % 0.0 mm
15:12 11.1 °C 9.8 °C 1023.9 hPa West 9.7 km/h 20.9 km/h 92 % 0.0 mm
15:17 11.1 °C 9.8 °C 1023.6 hPa West 6.4 km/h 19.3 km/h 92 % 0.0 mm
15:22 11.1 °C 9.8 °C 1023.9 hPa West 8.0 km/h 19.3 km/h 92 % 0.0 mm
15:32 11.1 °C 9.8 °C 1023.9 hPa WSW 11.3 km/h 20.9 km/h 92 % 0.0 mm
15:37 11.2 °C 9.9 °C 1023.9 hPa West 6.4 km/h 16.1 km/h 92 % 0.0 mm
15:42 11.2 °C 9.9 °C 1023.6 hPa WSW 14.5 km/h 16.1 km/h 92 % 0.0 mm
15:47 11.1 °C 9.8 °C 1023.6 hPa WSW 8.0 km/h 16.1 km/h 92 % 0.0 mm
15:52 11.2 °C 9.9 °C 1023.6 hPa West 9.7 km/h 16.1 km/h 92 % 0.0 mm
15:57 11.2 °C 9.9 °C 1023.6 hPa WSW 11.3 km/h 14.5 km/h 92 % 0.0 mm
16:02 11.2 °C 9.9 °C 1023.6 hPa West 12.9 km/h 14.5 km/h 92 % 0.0 mm
16:07 11.2 °C 9.9 °C 1023.6 hPa West 4.8 km/h 16.1 km/h 92 % 0.0 mm
16:12 11.2 °C 9.9 °C 1023.6 hPa West 8.0 km/h 16.1 km/h 92 % 0.0 mm
16:17 11.1 °C 9.8 °C 1023.6 hPa West 9.7 km/h 16.1 km/h 92 % 0.0 mm
16:22 11.1 °C 9.8 °C 1023.6 hPa WSW 9.7 km/h 16.1 km/h 92 % 0.0 mm
16:32 11.1 °C 9.8 °C 1023.6 hPa WSW 11.3 km/h 17.7 km/h 92 % 0.0 mm
16:37 11.1 °C 9.8 °C 1023.6 hPa West 9.7 km/h 17.7 km/h 92 % 0.0 mm
16:42 11.0 °C 9.8 °C 1023.2 hPa West 8.0 km/h 17.7 km/h 92 % 0.0 mm
16:47 11.0 °C 9.8 °C 1023.2 hPa WNW 6.4 km/h 17.7 km/h 92 % 0.0 mm
16:52 11.0 °C 9.6 °C 1023.2 hPa WNW 6.4 km/h 17.7 km/h 91 % 0.0 mm
16:57 11.0 °C 9.6 °C 1023.6 hPa WSW 11.3 km/h 17.7 km/h 91 % 0.0 mm
17:02 11.0 °C 9.6 °C 1023.6 hPa West 9.7 km/h 17.7 km/h 91 % 0.0 mm
17:07 10.9 °C 9.5 °C 1023.6 hPa WSW 9.7 km/h 17.7 km/h 91 % 0.0 mm
17:12 10.9 °C 9.5 °C 1023.2 hPa West 3.2 km/h 17.7 km/h 91 % 0.0 mm
17:17 10.9 °C 9.5 °C 1023.2 hPa West 4.8 km/h 14.5 km/h 91 % 0.0 mm
17:22 10.9 °C 9.5 °C 1023.2 hPa West 3.2 km/h 14.5 km/h 91 % 0.0 mm
17:32 10.9 °C 9.5 °C 1023.2 hPa West 4.8 km/h 14.5 km/h 91 % 0.0 mm
17:37 10.8 °C 9.4 °C 1023.2 hPa WSW 9.7 km/h 14.5 km/h 91 % 0.0 mm
17:42 10.8 °C 9.4 °C 1023.2 hPa West 8.0 km/h 14.5 km/h 91 % 0.0 mm
17:52 10.7 °C 9.5 °C 1023.2 hPa WSW 4.8 km/h 14.5 km/h 92 % 0.0 mm
17:57 10.7 °C 9.3 °C 1023.2 hPa West 4.8 km/h 14.5 km/h 91 % 0.0 mm
18:02 10.7 °C 9.3 °C 1023.2 hPa West 8.0 km/h 14.5 km/h 91 % 0.0 mm
18:07 10.6 °C 9.2 °C 1023.2 hPa WSW 11.3 km/h 12.9 km/h 91 % 0.0 mm
18:12 10.6 °C 9.4 °C 1023.2 hPa WSW 3.2 km/h 12.9 km/h 92 % 0.0 mm
18:17 10.6 °C 9.4 °C 1023.2 hPa WSW 1.6 km/h 12.9 km/h 92 % 0.0 mm
18:22 10.6 °C 9.4 °C 1023.2 hPa West 6.4 km/h 12.9 km/h 92 % 0.0 mm
18:27 10.5 °C 9.3 °C 1023.6 hPa West 4.8 km/h 12.9 km/h 92 % 0.0 mm
18:32 10.4 °C 9.2 °C 1023.6 hPa West 4.8 km/h 9.7 km/h 92 % 0.0 mm
18:37 10.4 °C 9.3 °C 1023.6 hPa West 6.4 km/h 9.7 km/h 93 % 0.0 mm
18:42 10.3 °C 9.2 °C 1023.6 hPa WNW 3.2 km/h 8.0 km/h 93 % 0.0 mm
18:47 10.3 °C 9.2 °C 1023.6 hPa WNW 4.8 km/h 8.0 km/h 93 % 0.0 mm
18:57 10.2 °C 9.1 °C 1023.6 hPa West 3.2 km/h 8.0 km/h 93 % 0.0 mm
19:02 10.2 °C 9.1 °C 1023.6 hPa West 3.2 km/h 8.0 km/h 93 % 0.0 mm
19:07 10.2 °C 9.1 °C 1023.6 hPa West 3.2 km/h 8.0 km/h 93 % 0.0 mm
19:12 10.2 °C 9.1 °C 1023.6 hPa WSW 6.4 km/h 8.0 km/h 93 % 0.0 mm
19:17 10.1 °C 9.2 °C 1023.6 hPa WSW 4.8 km/h 8.0 km/h 94 % 0.0 mm
19:22 10.1 °C 9.2 °C 1023.6 hPa West 4.8 km/h 8.0 km/h 94 % 0.0 mm
19:27 10.1 °C 9.2 °C 1023.6 hPa SW 3.2 km/h 11.3 km/h 94 % 0.0 mm
19:32 10.0 °C 9.1 °C 1023.6 hPa West 4.8 km/h 11.3 km/h 94 % 0.0 mm
19:37 9.9 °C 9.0 °C 1023.6 hPa WSW 6.4 km/h 9.7 km/h 94 % 0.0 mm
19:42 9.9 °C 9.1 °C 1023.6 hPa WNW 3.2 km/h 9.7 km/h 95 % 0.0 mm
19:47 9.9 °C 9.1 °C 1023.6 hPa West 4.8 km/h 9.7 km/h 95 % 0.0 mm
19:52 9.9 °C 9.1 °C 1023.6 hPa West 4.8 km/h 9.7 km/h 95 % 0.0 mm
19:57 9.8 °C 9.0 °C 1023.2 hPa West 3.2 km/h 9.7 km/h 95 % 0.0 mm
20:02 9.8 °C 9.0 °C 1023.6 hPa West 4.8 km/h 9.7 km/h 95 % 0.0 mm
20:12 9.8 °C 9.0 °C 1023.6 hPa WSW 4.8 km/h 11.3 km/h 95 % 0.0 mm
20:17 9.8 °C 9.0 °C 1023.6 hPa WSW 6.4 km/h 9.7 km/h 95 % 0.0 mm
20:22 9.7 °C 8.9 °C 1023.6 hPa West 3.2 km/h 9.7 km/h 95 % 0.0 mm
20:27 9.7 °C 8.9 °C 1023.6 hPa West 4.8 km/h 6.4 km/h 95 % 0.0 mm
20:32 9.8 °C 9.0 °C 1023.6 hPa SW 4.8 km/h 6.4 km/h 95 % 0.0 mm
20:37 9.8 °C 8.9 °C 1023.6 hPa SSW 1.6 km/h 12.9 km/h 94 % 0.0 mm
20:42 9.8 °C 8.9 °C 1023.6 hPa WSW 6.4 km/h 12.9 km/h 94 % 0.0 mm
20:47 9.8 °C 8.9 °C 1023.6 hPa SW 3.2 km/h 12.9 km/h 94 % 0.0 mm
20:52 9.8 °C 8.9 °C 1023.6 hPa SW 3.2 km/h 12.9 km/h 94 % 0.0 mm
20:57 9.8 °C 8.9 °C 1023.6 hPa WSW 8.0 km/h 12.9 km/h 94 % 0.0 mm
21:02 9.7 °C 8.8 °C 1023.6 hPa WSW 4.8 km/h 12.9 km/h 94 % 0.0 mm
21:07 9.7 °C 8.8 °C 1023.6 hPa WSW 6.4 km/h 12.9 km/h 94 % 0.0 mm
21:12 9.7 °C 8.8 °C 1023.6 hPa WSW 8.0 km/h 12.9 km/h 94 % 0.0 mm
21:17 9.7 °C 8.8 °C 1023.6 hPa SW 4.8 km/h 14.5 km/h 94 % 0.0 mm
21:22 9.7 °C 8.8 °C 1023.6 hPa SSW 4.8 km/h 14.5 km/h 94 % 0.0 mm
21:27 9.6 °C 8.8 °C 1023.2 hPa WSW 9.7 km/h 14.5 km/h 95 % 0.0 mm
21:32 9.6 °C 8.8 °C 1023.2 hPa WSW 6.4 km/h 14.5 km/h 95 % 0.0 mm
21:37 9.6 °C 8.7 °C 1023.2 hPa WSW 8.0 km/h 14.5 km/h 94 % 0.0 mm
21:42 9.6 °C 8.7 °C 1023.2 hPa SW 4.8 km/h 14.5 km/h 94 % 0.0 mm
21:47 9.6 °C 8.7 °C 1023.2 hPa WSW 6.4 km/h 12.9 km/h 94 % 0.0 mm
21:52 9.6 °C 8.7 °C 1023.2 hPa WSW 3.2 km/h 12.9 km/h 94 % 0.0 mm
21:57 9.6 °C 8.7 °C 1023.2 hPa West 8.0 km/h 9.7 km/h 94 % 0.0 mm
22:02 9.6 °C 8.7 °C 1023.2 hPa WSW 9.7 km/h 9.7 km/h 94 % 0.0 mm
22:07 9.6 °C 8.7 °C 1023.2 hPa West 8.0 km/h 11.3 km/h 94 % 0.0 mm
22:12 9.6 °C 8.7 °C 1023.2 hPa WSW 9.7 km/h 11.3 km/h 94 % 0.0 mm
22:17 9.6 °C 8.7 °C 1023.2 hPa WSW 3.2 km/h 14.5 km/h 94 % 0.0 mm
22:22 9.6 °C 8.7 °C 1023.2 hPa West 4.8 km/h 14.5 km/h 94 % 0.0 mm
22:27 9.6 °C 8.7 °C 1023.2 hPa West 3.2 km/h 16.1 km/h 94 % 0.0 mm
22:32 9.6 °C 8.7 °C 1023.2 hPa West 4.8 km/h 16.1 km/h 94 % 0.0 mm
22:37 9.6 °C 8.7 °C 1023.2 hPa SSW 6.4 km/h 17.7 km/h 94 % 0.0 mm
22:42 9.6 °C 8.7 °C 1023.2 hPa SW 4.8 km/h 17.7 km/h 94 % 0.0 mm
22:47 9.5 °C 8.6 °C 1023.2 hPa West 9.7 km/h 14.5 km/h 94 % 0.0 mm
22:52 9.5 °C 8.6 °C 1023.2 hPa WSW 11.3 km/h 14.5 km/h 94 % 0.0 mm
22:57 9.5 °C 8.6 °C 1023.2 hPa SW 9.7 km/h 20.9 km/h 94 % 0.0 mm
23:02 9.4 °C 8.5 °C 1023.2 hPa West 8.0 km/h 20.9 km/h 94 % 0.0 mm
23:07 9.4 °C 8.5 °C 1023.2 hPa WSW 4.8 km/h 20.9 km/h 94 % 0.0 mm
23:12 9.4 °C 8.5 °C 1023.2 hPa West 11.3 km/h 20.9 km/h 94 % 0.0 mm
23:17 9.4 °C 8.5 °C 1023.2 hPa WSW 6.4 km/h 16.1 km/h 94 % 0.0 mm
23:22 9.4 °C 8.5 °C 1023.2 hPa WSW 6.4 km/h 16.1 km/h 94 % 0.0 mm
23:27 9.4 °C 8.5 °C 1023.2 hPa SW 11.3 km/h 16.1 km/h 94 % 0.0 mm
23:32 9.4 °C 8.5 °C 1023.2 hPa West 9.7 km/h 16.1 km/h 94 % 0.0 mm
23:37 9.4 °C 8.5 °C 1023.2 hPa WSW 11.3 km/h 16.1 km/h 94 % 0.0 mm
23:42 9.4 °C 8.5 °C 1023.2 hPa Calm   16.1 km/h 94 % 0.0 mm
23:47 9.4 °C 8.5 °C 1023.2 hPa WSW 8.0 km/h 14.5 km/h 94 % 0.0 mm
23:52 9.4 °C 8.5 °C 1023.2 hPa SW 9.7 km/h 14.5 km/h 94 % 0.0 mm
23:57 9.4 °C 8.5 °C 1023.2 hPa WSW 4.8 km/h 16.1 km/h 94 % 0.0 mm
Meteo18
Compliments of Weather Underground - 4 mb

Script developed by  Jim McMurry - jmcmurry@mwt.net Adapted for the template by  Wim van der Kuil - Leuven-Template.eu

You find our weather info also at:

European Weather Network

Weather Underground

Equipment we use:

Weather-station
Davis Vue

Weather-program
Meteohub

Weather-server
Raspberry PI 2 B+

Provider
1 and 1

Davis Vue

Meteohub

Raspberry PI 2 B+

1 and 1